Find Starlink 31929

NORAD ID: 59836 Int'l Des: 2024-097 Owner: SPXS Country: US Constellation: starlink operational
LEOCIRCULAR

当前视图

正在加载3D地球...

About Starlink 31929

Starlink 31929 (NORAD 59836) is a starlink constellation satellite (v2 mini) launched May 23, 2024 by SPXS of US. It operates in LEO, CIRCULAR orbit with a mass of 730.00 kg.

关于 Starlink 31929

正在加载描述...

即将过境

Passes for default location (London). Set your location on the main map for personalized predictions.

高度历史

Loading altitude history...

两行轨道根数

1 59836U 24097B 26170.10649087 .00000632 00000-0 32492-4 0 9999
2 59836 43.0028 61.9165 0001334 263.5708 96.4991 15.27575532117425
Epoch: Jun 19, 2026 • Age: 26 hours

当前状态

高度 489.7 km
速度 7.62 km/s
星下点 -28.08°S, 36.91°E
发射日期 May 23, 2024
运行时间 2 years
类型 internet

技术详情

分类 Payload
质量 730.00 kg
干质量 700.00 kg
总质量 730.00 kg
长度 0.30 m
直径 4.10 m
跨度 29.00 m
形状 Box + pan
制造商 SPXS
平台类型 Starlink V2M
阶段状态 In Orbit
所有者/国家 SPXS/US

Most Searched